561  
FPUS82 KCHS 281327  
OPUCHS  
 
TEST   
..KCHS/KSAV GATEWAY OBSERVATIONS
 
TEST  
NATIONAL WEATHER SERVICE CHARLESTON SC  
900 AM EDT WED JUN 28 2017  
 
NOTE: "FAIR" INDICATES FEW OR NO CLOUDS BELOW 12,000 FEET WITH NO  
SIGNIFICANT WEATHER AND/OR OBSTRUCTIONS TO VISIBILITY.  
 
SCZ050-WAZ558-NCZ071-TXZ119-213-PAZ071-DCZ001-FLZ074-172-MI076-  
NYZ176-178-MAZ016-IL014-TNZ027-NJZ106-GAZ044-MD014-281400-  
   
..GATEWAY OBSERVATIONS FOR CHARLESTON INTERNATIONAL
 
 
 
CITY SKY/WX TMP DP RH WIND PRES REMARKS  
CHAS AIRPORT PTSUNNY 77 65 66 NE9 30.15R  
SEATTLE CLOUDY 55 51 86 SW6 30.02R  
CHARLOTTE MOSUNNY 71 53 52 NE7 30.20R  
DALLAS DFW MOSUNNY 76 72 87 S8 29.94S  
DALLAS LOVE MOSUNNY 75 70 84 S8 29.96R  
PHILLADELPHIA MOSUNNY 69 48 47 NW12G22 30.17R  
WASH NATIONAL SUNNY 70 52 52 SE3 30.20S  
BALTIMORE MOSUNNY 70 49 47 W5 30.18R  
MIAMI MOSUNNY 86 75 69 S7 30.02R HX 95  
DETROIT MOSUNNY 66 49 54 SW9 30.11F  
NEWARK MOSUNNY 68 51 54 NW6 30.13R  
LAGUARDIA SUNNY 68 54 60 NW13 30.11R  
J F K MOSUNNY 70 53 54 N10 30.12R  
BOSTON LOGAN SUNNY 66 53 63 W13 30.02R  
FT. LAUDERDALE PTSUNNY 84 76 76 CALM 30.02R HX 93  
CHICAGO O'HARE CLOUDY 66 49 54 S14 29.99R  
CHICAGO MIDWAY CLOUDY 67 49 52 S13 30.01R  
HOUSTON BUSH PTSUNNY 76 73 91 E12 29.93R  
HOUSTON HOBBY LGT RAIN 79 75 87 NE8 29.91S  
NASHVILLE MOSUNNY 68 59 73 CALM 30.16S  
ATLANTA PTSUNNY 72 60 66 E6 30.14S  
 

 
 
GAZ044-118-TXZ119-213-NCZ071-DCZ001-MDZ014-506-PAZ021-071-NJZ106-  
NYZ176-178-MAZ106-OHZ011-021-055-MIZ076-KYZ091-ILZ014-INZ047-  
MNZ060-ONZ431-281400-  
   
..GATEWAY OBSERVATIONS FOR SAVANNAH INTERNATIONAL
 
 
 
CITY SKY/WX TMP DP RH WIND PRES REMARKS  
SAVANNAH ARPT CLOUDY 75 68 78 NE12 30.13R  
ATLANTA PTSUNNY 72 60 66 E6 30.14S  
CHARLOTTE MOSUNNY 71 53 52 NE7 30.20R  
DALLAS DFW MOSUNNY 76 72 87 S8 29.94S  
HOUSTON BUSH PTSUNNY 76 73 91 E12 29.93R  
WASH NATIONAL SUNNY 70 52 52 SE3 30.20S  
WASH DULLES MOSUNNY 67 51 56 VRB3 30.20S  
BALTIMORE MOSUNNY 70 49 47 W5 30.18R  
PHILADELPHIA MOSUNNY 69 48 47 NW12G22 30.17R  
NEWARK MOSUNNY 68 51 54 NW6 30.13R  
LAGUARDIA SUNNY 68 54 60 NW13 30.11R  
J F K MOSUNNY 70 53 54 N10 30.12R  
BOSTON SUNNY 66 53 63 W13 30.02R  
PITTSBURG SUNNY 63 50 62 SW5 30.20R  
AKRON MOSUNNY 64 46 52 SW7 30.19R  
CLEVELAND SUNNY 67 51 56 SW7 30.18R  
CINCINNATI PTSUNNY 66 55 67 S9 30.17R  
COLUMBUS SUNNY 63 55 74 S5 30.19R  
DETROIT MOSUNNY 66 49 54 SW9 30.11F  
CHICAGO O'HARE CLOUDY 66 49 54 S14 29.99R  
MINNEAPOLIS RAIN 65 62 90 S13G21 29.63F  
INDIANAPOLIS CLOUDY 65 52 62 S12 30.11R  
TORONTO CANADA SUNNY 66 54 63 W6 30.07R  
 

 
 
 
CLICK HERE TO GO TO PREVIOUS BULLETINS.

The Nexlab SC Page
The Nexlab GA Page Main Text Page